WZZ5ZY LZKZ-LZIB

Flight info

Callsign WZZ5ZY
Flight time 0h 45m
Altitude 24000
Route TAKOS N190 NIT
Aircraft A321/M-SDE3FGHIRWY/LB1

Departure

Time 2026-04-23 18:42
Airport Košice International Airport (LZKZ)

Arrival

Time 2026-04-23 19:28
Airport M. R. Štefánik Airport (LZIB)
Time Latitude Longitude Altitude Speed Heading
2026-04-23 18:10 48.67279 21.23825 758 ft 0 kts 40°
2026-04-23 18:33 48.67279 21.23826 757 ft 1 kts 40°
2026-04-23 18:33 48.67292 21.23845 753 ft 4 kts 52°
2026-04-23 18:33 48.67308 21.23891 756 ft 6 kts 65°
2026-04-23 18:34 48.67305 21.23924 756 ft 1 kts 102°
2026-04-23 18:34 48.67297 21.23976 756 ft 10 kts 103°
2026-04-23 18:34 48.67282 21.24065 756 ft 7 kts 104°
2026-04-23 18:34 48.67266 21.24165 745 ft 13 kts 103°
2026-04-23 18:35 48.67246 21.24292 754 ft 8 kts 103°
2026-04-23 18:35 48.67236 21.24333 758 ft 1 kts 120°
2026-04-23 18:35 48.67235 21.24380 756 ft 9 kts 99°
2026-04-23 18:35 48.67213 21.24515 757 ft 16 kts 104°
2026-04-23 18:36 48.67191 21.24660 754 ft 12 kts 103°
2026-04-23 18:36 48.67137 21.24743 755 ft 12 kts 170°
2026-04-23 18:36 48.67053 21.24726 757 ft 13 kts 191°
2026-04-23 18:36 48.66964 21.24693 757 ft 14 kts 193°
2026-04-23 18:37 48.66868 21.24659 756 ft 15 kts 193°
2026-04-23 18:37 48.66763 21.24623 756 ft 16 kts 193°
2026-04-23 18:37 48.66652 21.24589 757 ft 17 kts 193°
2026-04-23 18:37 48.66535 21.24545 757 ft 18 kts 194°
2026-04-23 18:38 48.66412 21.24499 757 ft 18 kts 192°
2026-04-23 18:38 48.66291 21.24460 756 ft 18 kts 193°
2026-04-23 18:38 48.66168 21.24417 757 ft 18 kts 193°
2026-04-23 18:38 48.66041 21.24370 755 ft 19 kts 194°
2026-04-23 18:39 48.65932 21.24330 756 ft 13 kts 193°
2026-04-23 18:39 48.65887 21.24238 757 ft 11 kts 277°
2026-04-23 18:39 48.65893 21.24149 756 ft 0 kts 282°
2026-04-23 18:40 48.65893 21.24147 756 ft 1 kts 282°
2026-04-23 18:40 48.65898 21.24112 754 ft 9 kts 282°
2026-04-23 18:41 48.65925 21.24015 752 ft 9 kts 298°
2026-04-23 18:41 48.65952 21.23996 756 ft 2 kts 10°
2026-04-23 18:41 48.65977 21.24004 755 ft 0 kts 13°
2026-04-23 18:42 48.66063 21.24034 757 ft 44 kts 12°
2026-04-23 18:42 48.66606 21.24224 759 ft 114 kts 12°
2026-04-23 18:42 48.67559 21.24559 895 ft 157 kts 14°
2026-04-23 18:42 48.68553 21.24889 1882 ft 139 kts 11°
2026-04-23 18:43 48.69520 21.25205 2527 ft 149 kts 11°
2026-04-23 18:43 48.70579 21.25165 3019 ft 165 kts 338°
2026-04-23 18:43 48.71323 21.23678 3354 ft 202 kts 292°
2026-04-23 18:43 48.71268 21.21356 3734 ft 238 kts 267°
2026-04-23 18:44 48.70894 21.18784 4374 ft 260 kts 265°
2026-04-23 18:44 48.70480 21.16091 5398 ft 265 kts 264°
2026-04-23 18:44 48.70077 21.13349 6516 ft 269 kts 264°
2026-04-23 18:44 48.69681 21.10543 7488 ft 276 kts 264°
2026-04-23 18:45 48.69287 21.07667 8474 ft 282 kts 264°
2026-04-23 18:45 48.68893 21.04725 9448 ft 288 kts 264°
2026-04-23 18:45 48.68493 21.01714 10304 ft 297 kts 264°
2026-04-23 18:45 48.68075 20.98525 10691 ft 321 kts 263°
2026-04-23 18:46 48.67627 20.95092 10988 ft 345 kts 263°
2026-04-23 18:46 48.67143 20.91413 11266 ft 368 kts 263°
2026-04-23 18:46 48.66622 20.87499 11481 ft 392 kts 262°
2026-04-23 18:46 48.66065 20.83376 11955 ft 405 kts 262°
2026-04-23 18:47 48.65489 20.79176 12723 ft 409 kts 262°
2026-04-23 18:47 48.64913 20.75050 14166 ft 392 kts 262°
2026-04-23 18:47 48.64362 20.71110 15630 ft 374 kts 262°
2026-04-23 18:47 48.63847 20.67404 17094 ft 356 kts 263°
2026-04-23 18:48 48.63349 20.63796 18527 ft 338 kts 263°
2026-04-23 18:48 48.62878 20.60342 19374 ft 336 kts 264°
2026-04-23 18:48 48.62416 20.56918 19990 ft 339 kts 264°
2026-04-23 18:48 48.61942 20.53410 20553 ft 343 kts 264°
2026-04-23 18:49 48.61461 20.49858 21095 ft 347 kts 264°
2026-04-23 18:49 48.60973 20.46262 21609 ft 351 kts 264°
2026-04-23 18:49 48.60475 20.42624 22091 ft 356 kts 264°
2026-04-23 18:49 48.59967 20.38945 22564 ft 360 kts 264°
2026-04-23 18:50 48.59625 20.36486 22882 ft 362 kts 264°
2026-04-23 18:50 48.58926 20.31518 23649 ft 362 kts 264°
2026-04-23 18:50 48.58404 20.27813 24205 ft 359 kts 264°
2026-04-23 18:50 48.57910 20.24126 24680 ft 359 kts 266°
2026-04-23 18:51 48.57483 20.20411 25093 ft 360 kts 268°
2026-04-23 18:51 48.57093 20.16666 25485 ft 362 kts 268°
2026-04-23 18:51 48.56716 20.12889 25864 ft 366 kts 269°
2026-04-23 18:51 48.56334 20.09034 25976 ft 378 kts 268°
2026-04-23 18:52 48.55927 20.05029 26005 ft 394 kts 268°
2026-04-23 18:52 48.55489 20.00864 25996 ft 409 kts 267°
2026-04-23 18:52 48.55023 19.96588 26007 ft 416 kts 267°
2026-04-23 18:52 48.54539 19.92274 25995 ft 418 kts 266°
2026-04-23 18:53 48.54046 19.87945 26005 ft 418 kts 266°
2026-04-23 18:53 48.53554 19.83628 26014 ft 419 kts 266°
2026-04-23 18:53 48.53062 19.79288 25997 ft 419 kts 266°
2026-04-23 18:53 48.52576 19.74964 26018 ft 419 kts 266°
2026-04-23 18:54 48.52092 19.70625 26001 ft 419 kts 266°
2026-04-23 18:54 48.51607 19.66313 26001 ft 411 kts 266°
2026-04-23 18:54 48.51136 19.62191 26016 ft 397 kts 266°
2026-04-23 18:54 48.50673 19.58163 26015 ft 382 kts 267°
2026-04-23 18:55 48.50468 19.54303 26005 ft 358 kts 283°
2026-04-23 18:55 48.51000 19.50749 26020 ft 340 kts 301°
2026-04-23 18:55 48.52122 19.47707 26018 ft 327 kts 316°
2026-04-23 18:55 48.53679 19.45301 26023 ft 316 kts 330°
2026-04-23 18:56 48.54908 19.44083 26025 ft 310 kts 339°
2026-04-23 18:56 48.57556 19.42722 26024 ft 301 kts 356°
2026-04-23 18:56 48.59628 19.42614 26028 ft 297 kts
2026-04-23 18:56 48.61638 19.43270 26030 ft 296 kts 20°
2026-04-23 18:57 48.63483 19.44636 26033 ft 297 kts 32°
2026-04-23 18:57 48.65064 19.46659 26025 ft 300 kts 44°
2026-04-23 18:57 48.66287 19.49247 26028 ft 306 kts 57°
2026-04-23 18:57 48.67065 19.52280 26023 ft 314 kts 68°
2026-04-23 18:58 48.67548 19.55517 26017 ft 317 kts 72°
2026-04-23 18:58 48.67903 19.58823 26018 ft 319 kts 75°
2026-04-23 18:58 48.68200 19.62151 26015 ft 320 kts 75°
2026-04-23 18:58 48.68484 19.65498 26011 ft 320 kts 75°
2026-04-23 18:59 48.68777 19.68828 26008 ft 320 kts 75°
2026-04-23 18:59 48.68867 19.72236 25999 ft 330 kts 88°
2026-04-23 18:59 48.68347 19.75661 25995 ft 342 kts 104°
2026-04-23 18:59 48.67174 19.78860 25993 ft 356 kts 121°
2026-04-23 19:00 48.66046 19.80700 25993 ft 365 kts 133°
2026-04-23 19:00 48.63084 19.83250 25988 ft 379 kts 159°
2026-04-23 19:00 48.61326 19.83796 25985 ft 384 kts 173°
2026-04-23 19:00 48.57817 19.83176 25985 ft 388 kts 201°
2026-04-23 19:01 48.55434 19.81275 26013 ft 388 kts 222°
2026-04-23 19:01 48.53589 19.78384 26018 ft 380 kts 242°
2026-04-23 19:01 48.52738 19.76050 26002 ft 372 kts 255°
2026-04-23 19:01 48.51978 19.71120 26011 ft 363 kts 269°
2026-04-23 19:02 48.51720 19.68570 26001 ft 364 kts 269°
2026-04-23 19:02 48.51345 19.64850 26011 ft 364 kts 268°
2026-04-23 19:02 48.50964 19.61077 26018 ft 364 kts 269°
2026-04-23 19:02 48.50586 19.57305 26015 ft 364 kts 270°
2026-04-23 19:03 48.50583 19.53575 26010 ft 349 kts 289°
2026-04-23 19:03 48.51317 19.50197 26009 ft 332 kts 307°
2026-04-23 19:03 48.52629 19.47437 26010 ft 318 kts 323°
2026-04-23 19:03 48.54343 19.45446 26007 ft 307 kts 338°
2026-04-23 19:04 48.56295 19.44278 26009 ft 299 kts 352°
2026-04-23 19:04 48.58341 19.43956 25998 ft 294 kts
2026-04-23 19:04 48.60348 19.44464 25995 ft 293 kts 19°
2026-04-23 19:04 48.62192 19.45751 26014 ft 294 kts 32°
2026-04-23 19:05 48.63753 19.47754 26008 ft 298 kts 45°
2026-04-23 19:05 48.64923 19.50376 26001 ft 306 kts 59°
2026-04-23 19:05 48.65617 19.53453 25995 ft 313 kts 70°
2026-04-23 19:05 48.66061 19.56694 25998 ft 317 kts 73°
2026-04-23 19:06 48.66397 19.59998 26005 ft 319 kts 75°
2026-04-23 19:06 48.66689 19.63328 26013 ft 320 kts 75°
2026-04-23 19:06 48.66977 19.66665 26009 ft 320 kts 75°
2026-04-23 19:06 48.67237 19.70011 26002 ft 324 kts 81°
2026-04-23 19:07 48.66992 19.73460 25994 ft 338 kts 98°
2026-04-23 19:07 48.66034 19.76768 25992 ft 352 kts 116°
2026-04-23 19:07 48.64364 19.79558 25989 ft 366 kts 137°
2026-04-23 19:07 48.62103 19.81430 25987 ft 379 kts 158°
2026-04-23 19:08 48.59488 19.82062 25981 ft 385 kts 181°
2026-04-23 19:08 48.56859 19.81267 26009 ft 389 kts 205°
2026-04-23 19:08 48.54577 19.79141 26013 ft 384 kts 227°
2026-04-23 19:08 48.52934 19.76026 26016 ft 380 kts 248°
2026-04-23 19:09 48.52021 19.72306 26006 ft 381 kts 266°
2026-04-23 19:09 48.51578 19.68304 26016 ft 394 kts 268°
2026-04-23 19:09 48.51149 19.64195 26019 ft 410 kts 267°
2026-04-23 19:09 48.50696 19.59866 26015 ft 425 kts 267°
2026-04-23 19:10 48.50218 19.55391 26012 ft 439 kts 266°
2026-04-23 19:10 48.49716 19.50777 26015 ft 452 kts 266°
2026-04-23 19:10 48.49191 19.46033 26024 ft 465 kts 266°
2026-04-23 19:10 48.48649 19.41166 26019 ft 477 kts 265°
2026-04-23 19:11 48.48091 19.36170 26024 ft 489 kts 265°
2026-04-23 19:11 48.47519 19.31057 26028 ft 500 kts 265°
2026-04-23 19:11 48.46937 19.25853 26029 ft 507 kts 265°
2026-04-23 19:11 48.46346 19.20593 26037 ft 511 kts 265°
2026-04-23 19:12 48.45749 19.15313 26041 ft 511 kts 265°
2026-04-23 19:12 48.45139 19.10031 26042 ft 512 kts 264°
2026-04-23 19:12 48.44450 19.04765 26043 ft 514 kts 263°
2026-04-23 19:12 48.43676 18.99502 26046 ft 515 kts 261°
2026-04-23 19:13 48.42762 18.94280 26043 ft 519 kts 255°
2026-04-23 19:13 48.41475 18.89191 26051 ft 521 kts 253°
2026-04-23 19:13 48.40169 18.84107 26052 ft 521 kts 253°
2026-04-23 19:13 48.38858 18.79026 26048 ft 521 kts 252°
2026-04-23 19:14 48.37542 18.73946 26050 ft 521 kts 252°
2026-04-23 19:14 48.36217 18.68862 25435 ft 522 kts 252°
2026-04-23 19:14 48.34900 18.63833 25022 ft 515 kts 252°
2026-04-23 19:14 48.33585 18.58837 24709 ft 512 kts 252°
2026-04-23 19:15 48.32280 18.53872 24406 ft 510 kts 252°
2026-04-23 19:15 48.30999 18.48995 24102 ft 508 kts 252°
2026-04-23 19:15 48.29703 18.44074 23799 ft 505 kts 252°
2026-04-23 19:15 48.28410 18.39179 23480 ft 503 kts 252°
2026-04-23 19:16 48.27123 18.34308 23121 ft 500 kts 251°
2026-04-23 19:16 48.25838 18.29462 22762 ft 503 kts 251°
2026-04-23 19:16 48.24545 18.24592 22335 ft 501 kts 251°
2026-04-23 19:17 48.21975 18.14959 21457 ft 493 kts 251°
2026-04-23 19:17 48.20703 18.10214 20952 ft 488 kts 251°
2026-04-23 19:17 48.19444 18.05524 20458 ft 482 kts 251°
2026-04-23 19:17 48.18200 18.00893 19956 ft 477 kts 251°
2026-04-23 19:18 48.16969 17.96308 19474 ft 472 kts 251°
2026-04-23 19:18 48.15751 17.91776 18893 ft 466 kts 251°
2026-04-23 19:18 48.14547 17.87305 18218 ft 460 kts 251°
2026-04-23 19:18 48.13355 17.82891 17224 ft 458 kts 251°
2026-04-23 19:19 48.11047 17.74409 15113 ft 424 kts 251°
2026-04-23 19:19 48.09943 17.70361 13744 ft 416 kts 251°
2026-04-23 19:20 48.07194 17.62986 10953 ft 405 kts 227°
2026-04-23 19:20 48.04937 17.60538 9587 ft 400 kts 208°
2026-04-23 19:20 48.02437 17.58779 8075 ft 394 kts 206°
2026-04-23 19:20 48.00002 17.57165 7433 ft 368 kts 206°
2026-04-23 19:21 47.97752 17.55671 7071 ft 338 kts 210°
2026-04-23 19:21 47.95077 17.51074 6428 ft 274 kts 262°
2026-04-23 19:21 47.95028 17.48365 5755 ft 254 kts 291°
2026-04-23 19:22 47.95824 17.46143 5068 ft 239 kts 320°
2026-04-23 19:22 47.97225 17.45002 4341 ft 230 kts 346°
2026-04-23 19:22 48.00104 17.43815 3977 ft 205 kts 345°
2026-04-23 19:23 48.01459 17.43244 3736 ft 200 kts 345°
2026-04-23 19:23 48.02764 17.42563 3434 ft 199 kts 333°
2026-04-23 19:23 48.03886 17.41377 3159 ft 193 kts 322°
2026-04-23 19:24 48.05739 17.38681 2537 ft 181 kts 319°
2026-04-23 19:24 48.06606 17.37351 2547 ft 169 kts 319°
2026-04-23 19:24 48.08085 17.35071 2507 ft 145 kts 319°
2026-04-23 19:25 48.09409 17.33032 2237 ft 141 kts 319°
2026-04-23 19:25 48.10776 17.30922 1876 ft 142 kts 319°
2026-04-23 19:26 48.12139 17.28814 1483 ft 142 kts 317°
2026-04-23 19:26 48.12822 17.27753 1292 ft 142 kts 316°
2026-04-23 19:27 48.14193 17.25646 977 ft 140 kts 315°
2026-04-23 19:27 48.16200 17.22517 426 ft 131 kts 316°
2026-04-23 19:28 48.17025 17.21245 421 ft 38 kts 311°
2026-04-23 19:28 48.17054 17.20897 425 ft 11 kts 230°
2026-04-23 19:29 48.17052 17.20894 425 ft 1 kts 230°
2026-04-23 19:29 48.17056 17.20901 423 ft 0 kts 230°
2026-04-23 19:30 48.17139 17.20697 427 ft 19 kts 315°
2026-04-23 19:30 48.17155 17.20550 422 ft 15 kts 244°
2026-04-23 19:30 48.17061 17.20407 425 ft 7 kts 223°
2026-04-23 19:31 48.17018 17.20348 426 ft 10 kts 223°
2026-04-23 19:31 48.16962 17.20262 423 ft 13 kts 226°
2026-04-23 19:31 48.16894 17.20169 428 ft 11 kts 222°
2026-04-23 19:31 48.16879 17.20142 430 ft 4 kts 242°
2026-04-23 19:32 48.16855 17.20111 428 ft 5 kts 216°
2026-04-23 19:32 48.16837 17.20075 428 ft 4 kts 265°
2026-04-23 19:32 48.16863 17.20037 433 ft 7 kts 316°
2026-04-23 19:32 48.16869 17.20028 433 ft 0 kts 315°